Weather Roundup
Issued by NWS

Home | Current Version | Previous Version | Graphics & Text | Print | Product List | Glossary Off
Versions: 1 2 3 4 5 6 7 8 9 10 11 12 13 14 15 16 17 18 19 20 21 22 23 24 25 26 27 28 29 30 31 32 33 34 35 36 37 38 39 40 41 42 43 44 45 46 47 48 49 50

000
NZUS93 KARX 161510
HRRWXR

CURRENT HOURLY OBSERVATIONS ACROSS
MUCH OF THE UPPER MISSISSIPPI VALLEY
NATIONAL WEATHER SERVICE LA CROSSE WI
900 AM CST TUE JAN 16 2018


...SOUTHEAST MINNESOTA...


CITY           SKY/WX    TMP DP  RH WIND       PRES   REMARKS
ROCHESTER      CLOUDY     2   0  91 NW15      30.59R WCI -17
ROCHESTER/MAYO CLOUDY     2  -1  87 W12       30.62R WCI -14
WINONA         CLOUDY     5   0  78 NW6         N/A  WCI  -6
AUSTIN         NOT AVBL
ALBERT LEA     CLOUDY    -4  -9  77 NW8       30.64R HAZE    WCI -19
DODGE CENTER   CLOUDY     1  -2  85 NW12      30.60S FOG     WCI -15
PRESTON        CLOUDY     2  -2  84 NW16      30.58R FOG     WCI -17
OWATONNA       CLOUDY    -2  -8  78 NW14      30.65R WCI -21
FARIBAULT      CLOUDY     0  -6  78 W6        30.66S WCI -12
$$

...ELSEWHERE IN MINNESOTA...


CITY           SKY/WX    TMP DP  RH WIND       PRES   REMARKS
MINNEAPOLIS    MOCLDY    -1  -4  87 NW9       30.69R WCI -16
INTNL FALLS    FAIR     -10 -15  78 W3        30.62F
DULUTH         FAIR      -4  -7  87 NW13      30.56S WCI -23
RED WING       LGT SNOW   5  -2  72 W6        30.65S VSB 1   WCI  -6
REDWOOD FALLS  CLOUDY    -7 -12  79 NW12      30.73F WCI -26
MANKATO        LGT SNOW  -4  -8  83 NW13      30.70R FOG     WCI -23
WORTHINGTON    NOT AVBL
FAIRMONT       FLURRIES  -6 -11  79 NW17      30.69S WCI -28
$$

...SOUTHWEST WISCONSIN...


CITY           SKY/WX    TMP DP  RH WIND       PRES   REMARKS
LA CROSSE      PTSUNNY    5  -1  76 N12       30.62R WCI -11
PRAIRIE DU CHI LGT SNOW   8   2  77 CALM      30.60R
BOSCOBEL       CLOUDY     6   2  83 CALM      30.59R FOG
LONE ROCK      CLOUDY     5   3  91 W7        30.56R FOG     WCI  -7
PLATTEVILLE    CLOUDY     6   4  90 NW10      30.53R WCI  -9
FORT MC COY    FLURRIES  -2  -4  90 CALM      30.59R
CAMP DOUGLAS   MOSUNNY    9   5  85 W7        30.54R WCI  -3
MAUSTON-NEW LI FAIR       8   5  88 NW8       30.53R WCI  -5
VIROQUA        FAIR       6   4  94 NW8       30.52R WCI  -7
WIS DELLS      CLOUDY     9   6  86 NW3       30.52R
$$

...ELSEWHERE IN WISCONSIN...


CITY           SKY/WX    TMP DP  RH WIND       PRES   REMARKS
MILWAUKEE      LGT SNOW  20  14  77 NW9       30.43R WCI   9
MADISON        FAIR      11   7  84 NW8       30.50R WCI  -1
GREEN BAY      FAIR      10   6  84 CALM      30.49R
EAU CLAIRE     CLOUDY     6   3  87 NW5       30.59R WCI  -3
BLACK RVR FLS  CLOUDY     7   3  81 W5        30.58R WCI  -1
MEDFORD        CLOUDY     9   6  87 N3        30.49R
WAUSAU         FLURRIES   9   6  88 N6        30.48R WCI  -1
WIS RAPIDS     FAIR       7   3  84 N5        30.52R WCI  -2
MARSHFIELD     CLOUDY    11   7  84 N9        30.49R WCI  -2
RICE LAKE      FLURRIES   6   3  85 CALM      30.61R
$$

...NORTHEAST IOWA...


CITY           SKY/WX    TMP DP  RH WIND       PRES   REMARKS
WATERLOO       LGT SNOW   1  -5  75 NW14      30.63R WCI -17
DUBUQUE        CLOUDY     7   1  76 N14       30.53R WCI -10
DECORAH        FAIR       3   0  85 N14       30.57R WCI -15
MASON CITY     CLOUDY    -3  -8  79 N15       30.65R HAZE    WCI -23
CHARLES CITY   LGT SNOW   1  -2  85 NW18      30.63R WCI -19
OELWEIN        FLURRIES   5   5 100 NW15      30.59R WCI -13
$$

...ELSEWHERE IN IOWA...


CITY           SKY/WX    TMP DP  RH WIND       PRES   REMARKS
DES MOINES     FLURRIES  -2  -9  72 NW14      30.69R WCI -21
IOWA CITY      CLOUDY     5  -3  69 NW13G18   30.63R WCI -12
FORT DODGE     LGT SNOW  -2  -7  79 NW7       30.68R WCI -15
MARSHALLTOWN   CLOUDY     0  -5  79 NW15      30.65R HAZE    WCI -19
CEDAR RAPIDS   LGT SNOW   4  -2  76 NW17      30.60R WCI -16
$$

...NORTHERN ILLINOIS...


CITY           SKY/WX    TMP DP  RH WIND       PRES   REMARKS
CHICAGO-OHARE  PTSUNNY   17  12  80 NW14      30.43R WCI   3
CHICAGO-MIDWAY LGT SNOW  15  11  83 W9        30.44R FOG     WCI   3
MOLINE         LGT SNOW   6   1  80 W12       30.58R WCI  -9
ROCKFORD       FLURRIES  13   8  81 NW8       30.50R WCI   2
PEORIA         LGT SNOW   0  -6  76 W10       30.59R WCI -16
$$

NOTE: "FAIR" INDICATES FEW OR NO CLOUDS BELOW 12,000 FEET WITH NO
SIGNIFICANT WEATHER AND/OR OBSTRUCTIONS TO VISIBILITY. WIND
SPEEDS ARE IN MILES-PER-HOUR.




USA.gov is the U.S. government's official web portal to all federal, state and local government web resources and services.